Time,TemperatureF,DewpointF,PressureIn,WindDirection,WindDirectionDegrees,WindSpeedMPH,WindSpeedGustMPH,Humidity,HourlyPrecipIn,Conditions,Clouds,dailyrainin,SolarRadiationWatts/m^2,SoftwareType,DateUTC
2013-03-19 00:02:00,63.0,24.0,-100.00,WNW,297,28.0,47.0,22,0.00,,,0.00,0.000000,,2013-03-19 07:02:00,
2013-03-19 00:12:00,63.0,24.0,-100.00,WNW,297,28.0,47.0,22,0.00,,,0.00,0.000000,,2013-03-19 07:12:00,
2013-03-19 00:21:00,63.0,24.0,-100.00,WNW,297,28.0,47.0,22,0.00,,,0.00,0.000000,,2013-03-19 07:21:00,
2013-03-19 00:52:00,62.0,24.0,-100.00,WNW,298,33.0,51.0,23,0.00,,,0.00,0.000000,,2013-03-19 07:52:00,
2013-03-19 01:02:00,62.0,24.0,-100.00,WNW,298,33.0,51.0,23,0.00,,,0.00,0.000000,,2013-03-19 08:02:00,
2013-03-19 01:12:00,62.0,24.0,-100.00,WNW,298,33.0,51.0,23,0.00,,,0.00,0.000000,,2013-03-19 08:12:00,
2013-03-19 01:21:00,62.0,24.0,-100.00,WNW,298,33.0,51.0,23,0.00,,,0.00,0.000000,,2013-03-19 08:21:00,
2013-03-19 01:52:00,61.0,21.0,-100.00,WNW,303,28.0,50.0,21,0.00,,,0.00,0.000000,,2013-03-19 08:52:00,
2013-03-19 02:02:00,61.0,21.0,-100.00,WNW,303,28.0,50.0,21,0.00,,,0.00,0.000000,,2013-03-19 09:02:00,
2013-03-19 02:12:00,61.0,21.0,-100.00,WNW,303,28.0,50.0,21,0.00,,,0.00,0.000000,,2013-03-19 09:12:00,
2013-03-19 02:22:00,61.0,21.0,-100.00,WNW,303,28.0,50.0,21,0.00,,,0.00,0.000000,,2013-03-19 09:22:00,
2013-03-19 02:53:00,63.0,20.0,-100.00,NW,306,34.0,45.0,19,0.00,,,0.00,0.000000,,2013-03-19 09:53:00,
2013-03-19 03:03:00,63.0,20.0,-100.00,NW,306,34.0,45.0,19,0.00,,,0.00,0.000000,,2013-03-19 10:03:00,
2013-03-19 03:12:00,63.0,20.0,-100.00,NW,306,34.0,45.0,19,0.00,,,0.00,0.000000,,2013-03-19 10:12:00,
2013-03-19 03:22:00,63.0,20.0,-100.00,NW,306,34.0,45.0,19,0.00,,,0.00,0.000000,,2013-03-19 10:22:00,
2013-03-19 03:53:00,61.0,22.0,-100.00,NW,307,26.0,44.0,22,0.00,,,0.00,0.000000,,2013-03-19 10:53:00,
2013-03-19 04:02:00,61.0,22.0,-100.00,NW,307,26.0,44.0,22,0.00,,,0.00,0.000000,,2013-03-19 11:02:00,
2013-03-19 04:12:00,61.0,22.0,-100.00,NW,307,26.0,44.0,22,0.00,,,0.00,0.000000,,2013-03-19 11:12:00,
2013-03-19 04:22:00,61.0,22.0,-100.00,NW,307,26.0,44.0,22,0.00,,,0.00,0.000000,,2013-03-19 11:22:00,
2013-03-19 04:52:00,60.0,20.0,-100.00,NW,309,32.0,45.0,21,0.00,,,0.00,0.000000,,2013-03-19 11:52:00,
2013-03-19 05:02:00,60.0,20.0,-100.00,NW,309,32.0,45.0,21,0.00,,,0.00,0.000000,,2013-03-19 12:02:00,
2013-03-19 05:12:00,60.0,20.0,-100.00,NW,309,32.0,45.0,21,0.00,,,0.00,0.000000,,2013-03-19 12:12:00,
2013-03-19 05:22:00,60.0,20.0,-100.00,NW,309,32.0,45.0,21,0.00,,,0.00,0.000000,,2013-03-19 12:22:00,
2013-03-19 05:52:00,61.0,22.0,-100.00,WNW,299,26.0,36.0,22,0.00,,,0.00,0.000000,,2013-03-19 12:52:00,
2013-03-19 06:02:00,61.0,22.0,-100.00,WNW,299,26.0,36.0,22,0.00,,,0.00,0.000000,,2013-03-19 13:02:00,
2013-03-19 06:12:00,61.0,22.0,-100.00,WNW,299,26.0,36.0,22,0.00,,,0.00,0.000000,,2013-03-19 13:12:00,
2013-03-19 06:22:00,61.0,22.0,-100.00,WNW,299,26.0,36.0,22,0.00,,,0.00,0.000000,,2013-03-19 13:22:00,
2013-03-19 06:52:00,58.0,20.0,-100.00,NW,310,18.0,37.0,23,0.00,,,0.00,0.000000,,2013-03-19 13:52:00,
2013-03-19 07:02:00,58.0,20.0,-100.00,NW,310,18.0,37.0,23,0.00,,,0.00,0.000000,,2013-03-19 14:02:00,
2013-03-19 07:12:00,58.0,20.0,-100.00,NW,310,18.0,37.0,23,0.00,,,0.00,0.000000,,2013-03-19 14:12:00,
2013-03-19 07:22:00,58.0,20.0,-100.00,NW,310,18.0,37.0,23,0.00,,,0.00,0.000000,,2013-03-19 14:22:00,
2013-03-19 07:52:00,58.0,25.0,-100.00,NNW,330,20.0,29.0,28,0.00,,,0.00,6.000000,,2013-03-19 14:52:00,
2013-03-19 08:02:00,58.0,25.0,-100.00,NNW,330,20.0,29.0,28,0.00,,,0.00,6.000000,,2013-03-19 15:02:00,
2013-03-19 08:12:00,58.0,25.0,-100.00,NNW,330,20.0,29.0,28,0.00,,,0.00,6.000000,,2013-03-19 15:12:00,
2013-03-19 08:21:00,58.0,25.0,-100.00,NNW,330,20.0,29.0,28,0.00,,,0.00,6.000000,,2013-03-19 15:21:00,
2013-03-19 08:53:00,60.0,22.0,-100.00,SSW,207,11.0,28.0,23,0.00,,,0.00,50.000000,,2013-03-19 15:53:00,
2013-03-19 09:03:00,60.0,22.0,-100.00,SSW,207,11.0,28.0,23,0.00,,,0.00,50.000000,,2013-03-19 16:03:00,
2013-03-19 09:13:00,60.0,22.0,-100.00,SSW,207,11.0,28.0,23,0.00,,,0.00,50.000000,,2013-03-19 16:13:00,
2013-03-19 09:23:00,60.0,22.0,-100.00,SSW,207,11.0,28.0,23,0.00,,,0.00,50.000000,,2013-03-19 16:23:00,
2013-03-19 09:54:00,62.0,25.0,-100.00,NNE,28,12.0,20.0,24,0.00,,,0.00,411.000000,,2013-03-19 16:54:00,
2013-03-19 10:02:00,62.0,25.0,-100.00,NNE,28,12.0,20.0,24,0.00,,,0.00,411.000000,,2013-03-19 17:02:00,
2013-03-19 10:13:00,62.0,25.0,-100.00,NNE,28,12.0,20.0,24,0.00,,,0.00,411.000000,,2013-03-19 17:13:00,
2013-03-19 10:23:00,62.0,25.0,-100.00,NNE,28,12.0,20.0,24,0.00,,,0.00,411.000000,,2013-03-19 17:23:00,
2013-03-19 10:53:00,64.0,25.0,-100.00,NNE,20,19.0,25.0,23,0.00,,,0.00,599.000000,,2013-03-19 17:53:00,
2013-03-19 11:02:00,64.0,25.0,-100.00,NNE,20,19.0,25.0,23,0.00,,,0.00,599.000000,,2013-03-19 18:02:00,
2013-03-19 11:13:00,64.0,25.0,-100.00,NNE,20,19.0,25.0,23,0.00,,,0.00,599.000000,,2013-03-19 18:13:00,
2013-03-19 11:23:00,64.0,25.0,-100.00,NNE,20,19.0,25.0,23,0.00,,,0.00,599.000000,,2013-03-19 18:23:00,
2013-03-19 11:53:00,68.0,23.0,-100.00,NE,45,8.0,23.0,18,0.00,,,0.00,907.000000,,2013-03-19 18:53:00,
2013-03-19 12:02:00,68.0,23.0,-100.00,NE,45,8.0,23.0,18,0.00,,,0.00,907.000000,,2013-03-19 19:02:00,
2013-03-19 12:22:00,68.0,23.0,-100.00,NE,45,8.0,23.0,18,0.00,,,0.00,907.000000,,2013-03-19 19:22:00,
2013-03-19 12:53:00,73.0,23.0,-100.00,South,170,9.0,20.0,15,0.00,,,0.00,1061.000000,,2013-03-19 19:53:00,
2013-03-19 13:02:00,73.0,23.0,-100.00,South,170,9.0,20.0,15,0.00,,,0.00,1061.000000,,2013-03-19 20:02:00,
2013-03-19 13:12:00,73.0,23.0,-100.00,South,170,9.0,20.0,15,0.00,,,0.00,1061.000000,,2013-03-19 20:12:00,
2013-03-19 13:22:00,73.0,23.0,-100.00,South,170,9.0,20.0,15,0.00,,,0.00,1061.000000,,2013-03-19 20:22:00,
2013-03-19 13:53:00,75.0,19.0,-100.00,South,180,10.0,23.0,12,0.00,,,0.00,1093.000000,,2013-03-19 20:53:00,
2013-03-19 14:02:00,75.0,19.0,-100.00,South,180,10.0,23.0,12,0.00,,,0.00,1093.000000,,2013-03-19 21:02:00,
2013-03-19 14:11:00,75.0,19.0,-100.00,South,180,10.0,23.0,12,0.00,,,0.00,1093.000000,,2013-03-19 21:11:00,
2013-03-19 14:22:00,75.0,19.0,-100.00,South,180,10.0,23.0,12,0.00,,,0.00,1093.000000,,2013-03-19 21:22:00,
2013-03-19 14:53:00,73.0,17.0,-100.00,South,176,12.0,24.0,12,0.00,,,0.00,1066.000000,,2013-03-19 21:53:00,
2013-03-19 15:03:00,73.0,17.0,-100.00,South,176,12.0,24.0,12,0.00,,,0.00,1066.000000,,2013-03-19 22:03:00,
2013-03-19 15:12:00,73.0,17.0,-100.00,South,176,12.0,24.0,12,0.00,,,0.00,1066.000000,,2013-03-19 22:12:00,
2013-03-19 15:22:00,73.0,17.0,-100.00,South,176,12.0,24.0,12,0.00,,,0.00,1066.000000,,2013-03-19 22:22:00,
2013-03-19 15:53:00,71.0,16.0,-100.00,SSE,168,17.0,24.0,12,0.00,,,0.00,939.000000,,2013-03-19 22:53:00,
2013-03-19 16:02:00,71.0,16.0,-100.00,SSE,168,17.0,24.0,12,0.00,,,0.00,939.000000,,2013-03-19 23:02:00,
2013-03-19 16:12:00,71.0,16.0,-100.00,SSE,168,17.0,24.0,12,0.00,,,0.00,939.000000,,2013-03-19 23:12:00,
2013-03-19 16:22:00,71.0,16.0,-100.00,SSE,168,17.0,24.0,12,0.00,,,0.00,939.000000,,2013-03-19 23:22:00,
2013-03-19 16:52:00,75.0,19.0,-100.00,South,171,16.0,27.0,12,0.00,,,0.00,781.000000,,2013-03-19 23:52:00,
2013-03-19 17:02:00,75.0,19.0,-100.00,South,171,16.0,27.0,12,0.00,,,0.00,781.000000,,2013-03-20 00:02:00,
2013-03-19 17:12:00,75.0,19.0,-100.00,South,171,16.0,27.0,12,0.00,,,0.00,781.000000,,2013-03-20 00:12:00,
2013-03-19 17:22:00,75.0,19.0,-100.00,South,171,16.0,27.0,12,0.00,,,0.00,781.000000,,2013-03-20 00:22:00,
2013-03-19 17:52:00,74.0,20.0,-100.00,South,174,13.0,24.0,13,0.00,,,0.00,513.000000,,2013-03-20 00:52:00,
2013-03-19 18:02:00,74.0,20.0,-100.00,South,174,13.0,24.0,13,0.00,,,0.00,513.000000,,2013-03-20 01:02:00,
2013-03-19 18:12:00,74.0,20.0,-100.00,South,174,13.0,24.0,13,0.00,,,0.00,513.000000,,2013-03-20 01:12:00,
2013-03-19 18:22:00,74.0,20.0,-100.00,South,174,13.0,24.0,13,0.00,,,0.00,513.000000,,2013-03-20 01:22:00,
2013-03-19 18:52:00,67.0,27.0,-100.00,WSW,237,17.0,26.0,22,0.00,,,0.00,132.000000,,2013-03-20 01:52:00,
2013-03-19 19:02:00,67.0,27.0,-100.00,WSW,237,17.0,26.0,22,0.00,,,0.00,132.000000,,2013-03-20 02:02:00,
2013-03-19 19:11:00,67.0,27.0,-100.00,WSW,237,17.0,26.0,22,0.00,,,0.00,132.000000,,2013-03-20 02:11:00,
2013-03-19 19:21:00,67.0,27.0,-100.00,WSW,237,17.0,26.0,22,0.00,,,0.00,132.000000,,2013-03-20 02:21:00,
2013-03-19 19:53:00,64.0,28.0,-100.00,WSW,254,21.0,29.0,26,0.00,,,0.00,11.000000,,2013-03-20 02:53:00,
2013-03-19 20:02:00,64.0,28.0,-100.00,WSW,254,21.0,29.0,26,0.00,,,0.00,11.000000,,2013-03-20 03:02:00,
2013-03-19 20:12:00,64.0,28.0,-100.00,WSW,254,21.0,29.0,26,0.00,,,0.00,11.000000,,2013-03-20 03:12:00,
2013-03-19 20:22:00,64.0,28.0,-100.00,WSW,254,21.0,29.0,26,0.00,,,0.00,11.000000,,2013-03-20 03:22:00,
2013-03-19 20:53:00,62.0,28.0,-100.00,West,265,22.0,33.0,27,0.00,,,0.00,0.000000,,2013-03-20 03:53:00,
2013-03-19 21:02:00,62.0,28.0,-100.00,West,265,22.0,33.0,27,0.00,,,0.00,0.000000,,2013-03-20 04:02:00,
2013-03-19 21:12:00,62.0,28.0,-100.00,West,265,22.0,33.0,27,0.00,,,0.00,0.000000,,2013-03-20 04:12:00,
2013-03-19 21:22:00,62.0,28.0,-100.00,West,265,22.0,33.0,27,0.00,,,0.00,0.000000,,2013-03-20 04:22:00,
2013-03-19 21:52:00,63.0,25.0,-100.00,WNW,302,22.0,42.0,23,0.00,,,0.00,0.000000,,2013-03-20 04:52:00,
2013-03-19 22:02:00,63.0,25.0,-100.00,WNW,302,22.0,42.0,23,0.00,,,0.00,0.000000,,2013-03-20 05:02:00,
2013-03-19 22:12:00,63.0,25.0,-100.00,WNW,302,22.0,42.0,23,0.00,,,0.00,0.000000,,2013-03-20 05:12:00,
2013-03-19 22:22:00,63.0,25.0,-100.00,WNW,302,22.0,42.0,23,0.00,,,0.00,0.000000,,2013-03-20 05:22:00,
2013-03-19 22:53:00,63.0,25.0,-100.00,WNW,297,32.0,48.0,23,0.00,,,0.00,0.000000,,2013-03-20 05:53:00,
2013-03-19 23:02:00,63.0,25.0,-100.00,WNW,297,32.0,48.0,23,0.00,,,0.00,0.000000,,2013-03-20 06:02:00,
2013-03-19 23:12:00,63.0,25.0,-100.00,WNW,297,32.0,48.0,23,0.00,,,0.00,0.000000,,2013-03-20 06:12:00,
2013-03-19 23:21:00,63.0,25.0,-100.00,WNW,297,32.0,48.0,23,0.00,,,0.00,0.000000,,2013-03-20 06:21:00,
2013-03-19 23:52:00,61.0,27.0,-100.00,West,267,29.0,46.0,27,0.00,,,0.00,0.000000,,2013-03-20 06:52:00,